Probability
24 21 21 21 18 15 14 15 13 12 12 13 13 13 13 14 17 18 13 8 5 4 4 6 8 10 12 13 13 12 10 8 6 6 5 3 3 3 2 1 1 0 0
22 22 22 23 19 15 14 14 13 13 14 15 15 15 15 15 17 17 14 11 8 5 6 10 12 14 15 14 13 12 11 9 8 7 6 4 3 3 3 2 2 1 0
26 26 25 25 21 17 15 15 16 17 18 19 19 18 17 17 16 16 15 13 10 8 11 16 18 18 18 16 12 11 12 12 11 10 7 4 3 3 3 2 1 1 1
34 31 29 26 23 18 15 17 20 21 23 22 21 19 19 18 17 17 16 14 12 10 13 18 19 17 17 14 10 10 13 14 14 13 9 5 3 2 2 1 0 0 0
38 35 32 28 25 20 17 20 23 25 24 23 22 22 21 19 18 18 18 15 13 13 14 16 16 14 11 8 6 7 10 13 14 13 10 8 5 3 2 1 0 0 0
42 39 34 31 28 25 23 26 30 31 28 25 24 24 22 19 16 15 15 16 16 14 14 14 13 11 7 4 3 3 5 8 10 9 9 9 7 5 3 2 1 1 0
46 43 37 34 32 29 27 31 35 36 34 30 27 24 23 18 13 9 9 15 18 17 15 15 14 10 7 5 4 3 2 3 5 6 6 7 8 7 5 3 2 2 1
49 45 39 35 33 30 28 30 32 34 34 32 29 27 25 18 9 3 5 13 19 18 17 15 13 9 6 6 5 4 4 3 3 3 3 5 6 6 4 3 3 3 3
47 44 40 36 33 30 28 27 27 30 30 29 28 27 26 19 8 1 4 12 18 18 16 13 11 8 5 4 5 5 4 3 3 2 2 3 4 3 2 2 3 3 3
40 40 38 37 33 29 26 24 25 27 28 26 25 24 23 19 9 2 4 11 18 18 15 11 8 6 4 3 4 5 4 3 3 3 2 2 3 3 2 3 4 4 4
31 31 33 33 30 26 24 23 23 24 24 23 22 21 19 17 10 3 2 9 16 17 14 10 7 3 1 1 2 4 3 3 3 3 3 3 4 5 6 6 7 6 5
25 25 26 27 25 22 21 21 22 22 20 20 20 19 18 15 9 3 1 4 9 12 12 9 4 1 0 0 0 1 1 1 3 3 3 3 5 7 8 8 8 7 7
21 21 22 22 21 19 18 19 20 19 18 18 17 17 17 14 10 5 2 1 2 5 7 5 2 0 0 0 0 0 0 1 2 3 3 3 4 6 7 7 7 7 8
19 19 19 18 18 17 17 16 16 16 17 16 16 16 15 14 11 7 4 2 2 3 4 3 1 0 0 0 0 0 0 1 2 3 3 3 3 4 4 5 6 6 5
18 18 17 16 16 16 14 12 11 11 11 11 11 12 12 11 9 6 4 3 3 3 3 3 2 1 0 1 2 1 1 0 1 2 3 3 3 2 3 3 4 4 2
16 17 16 16 16 14 11 7 6 6 5 4 4 6 7 6 5 3 2 2 2 2 3 4 4 2 1 2 2 2 1 1 1 1 2 2 1 1 1 1 2 2 1
13 14 15 15 14 11 8 5 4 3 2 2 1 1 2 2 1 1 0 0 0 0 2 4 4 3 2 1 1 1 1 1 1 1 1 1 0 0 0 0 0 0 0
12 12 13 13 11 8 7 6 4 3 3 4 3 2 1 1 0 0 0 0 0 0 1 2 3 3 2 1 0 0 0 0 0 0 0 0 0 0 0 0 0 0 0
11 10 10 9 8 7 6 6 4 4 4 6 7 4 1 0 0 0 0 1 1 1 0 1 1 2 2 1 0 0 0 0 0 0 0 0 0 0 0 0 0 0 0
9 8 8 7 7 6 6 5 5 4 5 6 8 7 3 2 2 1 1 2 2 1 1 2 1 1 1 1 0 0 0 0 0 0 0 0 0 0 0 0 0 0 0
7 7 7 7 7 6 5 4 4 4 4 6 7 6 4 3 3 2 2 2 3 2 2 2 1 1 0 0 0 0 0 0 0 0 0 0 0 0 0 0 0 0 0
6 7 7 7 7 6 4 3 3 4 4 5 6 4 2 2 3 2 2 2 2 2 1 1 1 0 0 0 0 0 0 0 0 0 0 0 0 0 0 0 0 0 0
6 7 7 7 6 4 3 3 3 3 3 4 3 2 1 1 1 1 2 2 1 1 0 0 0 0 0 0 0 0 0 1 1 0 0 0 0 0 0 0 0 0 0
6 6 6 5 4 3 3 3 3 3 3 2 1 0 0 1 1 1 1 1 0 0 0 0 0 0 0 0 0 0 0 1 1 0 0 0 0 0 0 0 0 0 0
5 4 4 4 3 3 3 3 3 2 2 1 0 0 0 1 2 2 2 1 0 0 0 0 0 0 0 0 0 0 0 1 1 0 0 0 0 0 1 1 1 0 0
4 4 3 3 3 3 3 3 2 1 1 0 0 0 0 1 2 3 2 1 0 0 0 0 0 0 0 0 0 0 0 0 0 0 0 0 0 1 2 2 2 1 0
Wind_Speed
6 6 5 5 4 4 3 2 2 1 1 1 2 2 2 2 1 1 1 1 1 1 1 1 2 2 2 2 2 2 2 2 2 1 2 3 2 2 2 2 3 3 5
7 6 5 4 4 4 3 3 3 2 1 1 2 2 2 2 1 1 1 1 1 1 2 1 2 1 1 2 1 2 1 1 2 2 2 2 2 2 2 1 2 3 4
7 6 5 4 4 3 2 2 2 2 2 2 2 2 2 1 1 1 1 1 1 1 2 1 1 1 1 0 1 1 1 1 1 2 2 2 2 2 2 2 3 1 2
6 6 5 4 4 3 3 2 2 2 2 1 1 1 1 1 1 0 0 0 1 2 2 2 2 1 1 1 1 1 1 1 1 2 2 2 2 2 2 1 2 2 1
5 5 4 4 4 3 3 2 2 2 2 1 1 1 0 0 0 0 1 1 1 2 2 2 3 4 6 4 3 2 1 1 1 1 2 2 1 1 1 1 1 1 2
5 5 4 4 4 3 3 3 3 3 2 2 2 1 1 1 4 4 1 1 1 1 1 1 2 3 4 5 5 6 5 3 2 1 0 1 1 1 1 1 1 1 0
6 5 4 4 4 4 3 3 3 3 3 2 2 2 3 3 4 4 2 1 1 1 2 2 1 3 2 3 4 3 3 4 4 3 2 2 1 0 1 2 1 1 2
5 5 4 4 4 4 4 3 3 3 3 3 3 3 2 3 3 2 2 1 1 2 2 2 2 3 4 3 2 3 4 4 4 2 2 2 3 2 1 2 1 1 0
5 4 4 4 4 4 4 4 4 3 3 3 3 3 3 3 4 3 1 2 2 2 3 3 3 3 4 3 2 3 3 3 5 5 5 4 4 3 2 1 1 2 1
5 4 4 4 4 4 5 4 4 4 4 3 3 3 3 2 4 3 1 1 2 2 3 4 5 4 5 4 2 2 2 2 3 3 3 2 2 2 1 1 2 2 2
5 5 4 4 4 5 4 4 4 4 4 3 3 3 3 3 5 5 3 1 1 2 2 3 4 7 5 4 3 2 2 2 1 1 2 2 1 1 1 1 2 3 3
6 6 5 4 3 4 5 4 4 4 4 4 3 2 3 4 4 5 4 4 4 3 3 3 5 6 5 4 3 3 2 2 0 1 1 1 2 2 2 2 2 2 3
6 6 5 5 4 4 4 4 3 3 2 2 2 2 3 3 4 5 5 4 4 3 4 6 5 4 3 3 3 1 1 1 1 1 1 1 2 2 2 1 1 1 1
7 6 5 5 5 4 3 2 2 2 2 2 2 2 2 2 2 3 4 4 5 4 4 5 5 3 2 2 2 1 1 2 2 2 2 2 2 1 1 1 1 1 1
7 6 5 5 5 5 4 4 3 4 4 2 1 2 2 2 4 5 3 2 2 3 2 2 2 2 2 2 1 2 1 1 1 1 1 1 1 1 2 2 2 2 2
6 6 4 4 4 4 5 5 10 7 9 8 7 4 5 6 5 5 6 6 4 2 1 1 2 1 1 2 1 1 1 1 1 1 1 1 1 2 2 2 2 3 3
6 5 4 4 4 4 4 4 4 5 7 8 7 6 5 5 5 5 5 4 2 1 1 1 1 1 1 1 1 1 2 2 2 1 1 2 2 2 1 1 2 2 2
5 5 4 4 4 4 4 4 3 4 4 4 5 6 5 5 4 3 3 3 2 1 1 1 1 1 1 1 1 2 2 2 1 1 1 2 2 2 2 2 2 3 3
5 4 4 4 3 3 3 3 3 3 4 4 4 5 6 6 5 3 2 1 2 1 1 1 1 1 1 2 2 1 1 1 2 2 1 2 2 2 2 3 2 2 4
4 5 4 4 4 4 3 3 3 3 3 3 3 3 4 4 3 3 2 1 1 1 1 1 1 1 1 1 1 1 1 1 1 2 2 2 2 2 2 3 3 4 3
5 5 5 4 3 3 3 3 3 3 3 3 3 3 1 1 2 2 1 1 1 1 1 1 1 1 1 1 1 2 2 2 2 2 2 2 2 2 3 3 3 4 4
4 4 4 4 4 4 4 3 3 3 3 3 4 4 2 1 2 2 2 1 1 1 1 1 1 1 2 2 2 2 2 2 2 2 2 2 2 3 3 3 4 4 4
4 4 4 4 4 5 4 4 3 3 3 3 3 3 2 2 2 2 2 1 1 1 1 1 1 2 2 2 2 2 3 3 3 3 3 3 3 3 4 4 4 5 4
4 4 4 4 4 4 4 4 3 3 3 3 3 3 2 2 2 2 2 2 2 1 1 1 2 3 3 3 2 3 4 4 4 4 5 5 4 4 4 4 5 6 5
4 4 4 4 4 4 4 4 3 3 3 3 3 3 3 2 2 2 2 2 2 2 1 1 1 2 3 3 3 4 5 5 5 6 5 5 5 5 5 5 5 5 5
4 4 4 4 4 4 4 4 4 3 3 3 3 3 2 2 2 2 2 2 1 1 1 1 2 2 2 2 4 5 3 3 4 6 7 5 5 4 5 5 6 6 6
Wind_Direction
179 180 185 181 181 183 187 188 198 206 214 226 260 259 248 243 243 227 267 252 247 275 263 250 271 301 288 274 263 263 259 253 235 143 108 103 101 97 108 125 120 114 98
173 175 177 176 178 185 189 194 192 187 210 224 241 241 241 235 229 232 258 272 271 287 294 292 286 275 261 291 286 268 258 260 230 170 141 133 126 132 123 132 101 97 100
168 168 168 175 185 194 194 193 182 176 195 208 220 237 247 234 206 237 253 271 318 336 329 315 306 319 292 338 299 283 255 211 213 183 154 132 136 132 134 122 102 86 96
164 167 166 174 181 181 181 175 170 178 186 186 200 221 227 219 194 172 218 356 25 15 17 17 18 14 11 326 285 299 287 229 187 190 151 145 142 146 164 162 140 136 89
158 162 164 166 163 165 163 162 165 168 173 166 165 137 132 160 62 106 140 105 75 57 50 51 60 56 43 21 4 7 346 284 226 201 164 149 146 171 197 220 169 153 122
150 151 154 158 154 152 151 156 158 154 147 135 127 124 107 71 59 56 13 65 81 63 45 55 96 97 86 75 52 38 23 350 327 300 155 173 189 203 226 233 217 251 236
150 148 153 157 150 143 148 149 152 151 141 127 117 109 97 71 66 79 59 349 71 48 32 24 22 67 82 92 102 114 73 46 17 333 346 328 305 227 236 238 238 286 327
144 144 156 158 155 152 151 145 136 129 126 122 117 114 105 70 62 75 88 125 71 63 56 40 45 57 42 34 74 76 68 54 32 14 9 354 6 357 259 245 239 199 172
135 141 148 154 150 146 141 133 130 127 123 122 119 109 96 72 52 43 55 126 105 88 74 62 62 77 46 35 81 81 74 82 87 71 49 47 44 28 345 295 263 255 273
126 129 132 139 142 136 130 128 127 129 126 126 110 97 91 71 67 59 12 131 103 103 104 97 75 54 55 44 79 86 74 47 52 83 86 98 98 95 129 293 287 280 299
123 124 121 120 127 125 124 124 130 130 121 115 109 107 93 70 84 69 27 359 82 111 97 84 72 67 61 41 22 45 36 328 40 74 88 84 87 79 62 34 342 317 315
124 122 115 113 118 119 117 121 128 135 134 127 122 115 101 92 75 79 63 26 4 66 66 73 83 89 79 57 44 32 352 301 34 58 51 43 34 38 47 40 35 5 349
127 122 118 114 107 108 117 125 137 145 144 136 134 123 106 98 101 102 104 82 50 60 69 68 78 101 114 96 77 38 322 347 8 18 16 20 24 29 20 51 125 149 194
131 128 127 126 119 105 103 111 108 103 111 114 121 117 109 105 97 112 126 129 130 122 110 111 124 120 115 93 110 119 52 21 346 360 14 16 18 21 357 351 330 316 309
132 132 132 126 116 104 85 53 59 55 38 25 70 98 99 96 61 37 31 74 76 82 104 121 104 97 95 84 68 46 27 14 4 17 16 15 8 8 8 359 338 324 332
141 142 140 136 129 128 118 94 56 56 59 51 37 35 68 73 90 78 69 64 61 53 108 118 97 74 53 44 39 50 51 28 3 9 9 358 357 5 10 0 347 341 340
145 143 141 140 140 144 142 137 124 94 77 65 58 61 78 92 96 96 93 88 78 125 121 87 73 50 33 30 17 15 20 31 9 3 0 351 348 346 344 341 340 335 334
143 136 144 142 145 149 149 150 147 144 135 114 91 92 109 112 110 118 135 134 115 124 95 84 67 41 32 15 10 12 10 10 4 351 348 345 334 323 322 320 334 339 326
148 144 141 143 148 146 145 149 144 138 132 129 126 119 128 132 128 136 169 153 98 96 80 58 30 29 23 16 4 354 346 346 345 323 342 340 334 332 331 322 325 328 306
130 121 143 151 147 145 151 151 146 144 140 134 128 127 143 154 139 131 146 116 91 82 59 52 37 26 14 358 331 320 319 325 316 313 336 330 334 330 323 316 323 321 316
140 139 151 157 148 142 140 139 142 144 135 123 110 86 54 157 128 116 108 87 71 69 60 50 31 11 14 339 325 314 315 328 333 331 328 322 318 311 306 306 309 313 317
147 151 153 146 141 139 139 143 146 142 137 133 127 128 147 180 105 101 97 87 66 49 32 24 34 28 12 351 329 323 324 329 336 336 329 320 310 305 306 307 311 314 312
156 156 152 147 143 144 157 151 151 149 141 139 136 133 135 116 102 100 95 81 66 48 45 43 36 33 21 357 344 335 333 338 340 341 327 316 312 309 308 307 303 302 309
162 161 156 152 153 159 157 151 151 145 139 137 134 131 131 125 115 109 107 100 85 67 52 47 47 44 32 9 356 2 16 4 337 324 320 311 305 306 308 305 304 312 311
166 164 160 159 160 159 156 155 151 147 143 139 137 137 133 130 123 116 110 104 96 87 80 68 63 55 38 17 6 12 24 6 342 326 305 298 302 308 309 309 310 311 311
163 167 165 160 159 157 154 155 151 147 144 142 140 137 139 139 134 129 127 129 128 118 109 84 58 41 18 15 24 19 13 344 331 317 303 302 304 309 311 304 305 303 307